SM7CKM-1 Weather Reports


time (UTC)temp
C
wind
direction
speed
KPH
gust
KPH
rain 1hr
cm
rain 24hr
cm
rain mn
cm
humidity
%
barometer
mb
20260507220841 6 147 4.8 6.4 0.00 0.00 0.00 43 1020.3
20260507215740 6 128 4.8 6.4 0.00 0.00 0.00 44 1020.2
20260507214640 6 131 3.2 4.8 0.00 0.00 0.00 45 1020.1
20260507213542 6 147 4.8 6.4 0.00 0.00 0.00 45 1019.9
20260507212441 6 146 4.8 8.0 0.00 0.00 0.00 46 1019.9
20260507211340 6 207 6.4 11.3 0.00 0.00 0.00 48 1019.6
20260507210240 6 133 4.8 11.3 0.00 0.00 0.00 50 1019.4
20260507204041 7 145 4.8 12.9 0.00 0.00 0.00 42 1019.4
20260507201840 8 102 6.4 9.7 0.00 0.00 0.00 43 1019.1
20260507200741 8 141 4.8 6.4 0.00 0.00 0.00 43 1019.1
20260507195641 8 134 6.4 12.9 0.00 0.00 0.00 43 1018.9
20260507194540 8 147 6.4 11.3 0.00 0.00 0.00 42 1018.9
20260507191241 10 185 8.0 12.9 0.00 0.00 0.00 41 1018.4
20260507190140 10 156 8.0 14.5 0.00 0.00 0.00 41 1018.4
20260507185040 11 115 11.3 20.9 0.00 0.00 0.00 40 1018.3
20260507183940 11 134 11.3 14.5 0.00 0.00 0.00 40 1018.1
20260507182841 12 157 11.3 17.7 0.00 0.00 0.00 38 1018.0
20260507181740 12 100 11.3 17.7 0.00 0.00 0.00 33 1017.8
20260507180640 13 184 1.6 3.2 0.00 0.00 0.00 30 1017.7
20260507175540 14 202 1.6 3.2 0.00 0.00 0.00 28 1017.3
20260507174439 14 302 3.2 4.8 0.00 0.00 0.00 22 1017.1
20260507171139 15 323 6.4 8.0 0.00 0.00 0.00 20 1016.9
20260507164940 15 317 4.8 8.0 0.00 0.00 0.00 20 1016.8
20260507163839 15 326 6.4 8.0 0.00 0.00 0.00 20 1016.7
20260507162739 16 299 6.4 11.3 0.00 0.00 0.00 20 1016.6
20260507161640 16 329 6.4 9.7 0.00 0.00 0.00 20 1016.8
20260507160540 16 326 6.4 11.3 0.00 0.00 0.00 20 1016.8
20260507155440 16 246 4.8 8.0 0.00 0.00 0.00 20 1016.9
20260507154340 16 315 4.8 8.0 0.00 0.00 0.00 20 1016.7
20260507153238 16 322 4.8 9.7 0.00 0.00 0.00 20 1016.7
20260507152139 16 336 6.4 8.0 0.00 0.00 0.00 20 1016.7
20260507151038 16 332 8.0 11.3 0.00 0.00 0.00 20 1016.5
20260507145938 16 339 8.0 11.3 0.00 0.00 0.00 22 1016.5
20260507144838 16 260 6.4 11.3 0.00 0.00 0.00 22 1016.6
20260507143739 15 322 9.7 17.7 0.00 0.00 0.00 22 1016.6
20260507142639 16 13 8.0 14.5 0.00 0.00 0.00 24 1016.6
20260507140438 16 142 3.2 11.3 0.00 0.00 0.00 24 1016.6
20260507135340 15 203 4.8 6.4 0.00 0.00 0.00 26 1016.5
20260507133139 15 45 8.0 11.3 0.00 0.00 0.00 30 1016.4
20260507132039 15 69 9.7 14.5 0.00 0.00 0.00 28 1016.5
20260507130938 15 75 8.0 8.0 0.00 0.00 0.00 30 1016.2
20260507125838 15 313 4.8 6.4 0.00 0.00 0.00 30 1016.2
20260507124739 14 298 6.4 12.9 0.00 0.00 0.00 30 1016.3
20260507122538 15 290 9.7 12.9 0.00 0.00 0.00 31 1016.3
20260507121438 14 336 9.7 12.9 0.00 0.00 0.00 31 1016.1
20260507120338 14 350 11.3 14.5 0.00 0.00 0.00 31 1016.0
20260507115237 14 346 9.7 12.9 0.00 0.00 0.00 32 1016.3
20260507114137 14 329 6.4 11.3 0.00 0.00 0.00 31 1016.2
20260507113039 13 335 8.0 11.3 0.00 0.00 0.00 32 1016.3
20260507111938 13 321 9.7 12.9 0.00 0.00 0.00 32 1016.4
20260507110837 13 329 9.7 14.5 0.00 0.00 0.00 32 1016.3
20260507104637 13 268 8.0 12.9 0.00 0.00 0.00 33 1016.2
20260507103537 13 8 9.7 12.9 0.00 0.00 0.00 34 1016.2
20260507102437 13 348 11.3 12.9 0.00 0.00 0.00 33 1016.2
20260507100237 12 338 6.4 9.7 0.00 0.00 0.00 34 1016.2
20260507095137 13 30 6.4 12.9 0.00 0.00 0.00 33 1016.2
20260507094037 13 347 6.4 9.7 0.00 0.00 0.00 34 1016.2
20260507092937 13 352 6.4 12.9 0.00 0.00 0.00 37 1016.1
20260507091837 13 217 6.4 11.3 0.00 0.00 0.00 38 1016.1
20260507090736 13 196 4.8 6.4 0.00 0.00 0.00 40 1016.1
20260507085637 12 298 6.4 12.9 0.00 0.00 0.00 40 1016.0
20260507084537 12 179 8.0 11.3 0.00 0.00 0.00 40 1016.2
20260507083436 12 334 9.7 12.9 0.00 0.00 0.00 42 1016.2
20260507082336 12 354 9.7 14.5 0.00 0.00 0.00 43 1016.0
20260507081236 11 335 11.3 12.9 0.00 0.00 0.00 45 1015.9
20260507080137 11 339 12.9 14.5 0.00 0.00 0.00 45 1015.9
20260507073936 11 344 11.3 14.5 0.00 0.00 0.00 48 1015.9
20260507072836 11 338 11.3 12.9 0.00 0.00 0.00 50 1015.5
20260507071738 10 331 12.9 17.7 0.00 0.00 0.00 50 1015.6
20260507070636 10 321 11.3 14.5 0.00 0.00 0.00 48 1015.7
20260507065537 11 350 9.7 12.9 0.00 0.00 0.00 50 1015.6
20260507063336 10 272 8.0 11.3 0.00 0.00 0.00 53 1015.7
20260507061136 10 273 8.0 11.3 0.00 0.00 0.00 53 1015.5
20260507060035 10 232 8.0 12.9 0.00 0.00 0.00 53 1015.3
20260507054935 9 213 6.4 6.4 0.00 0.00 0.00 56 1015.2
20260507052735 8 212 4.8 8.0 0.00 0.00 0.00 61 1015.0
20260507050535 6 138 3.2 4.8 0.00 0.00 0.00 82 1015.0
20260507045435 5 146 1.6 3.2 0.00 0.00 0.00 83 1014.9
20260507044335 2 144 1.6 3.2 0.00 0.00 0.00 82 1014.9
20260507043235 2 135 0.0 3.2 0.00 0.00 0.00 81 1014.9
20260507042135 1 0 0.0 0.0 0.00 0.00 0.00 81 1014.7
20260507041035 1 0 0.0 0.0 0.00 0.00 0.00 81 1014.6
20260507035935 1 0 0.0 0.0 0.00 0.00 0.00 80 1014.8
20260507034835 1 0 0.0 0.0 0.00 0.00 0.00 80 1014.5
20260507033735 1 0 0.0 0.0 0.00 0.00 0.00 80 1014.4
20260507031535 1 135 0.0 3.2 0.00 0.00 0.00 78 1014.5
20260507030436 1 0 0.0 0.0 0.00 0.00 0.00 77 1014.3
20260507025335 1 0 0.0 0.0 0.00 0.00 0.00 77 1014.2
20260507024234 1 0 0.0 0.0 0.00 0.00 0.00 76 1014.1
20260507023135 1 0 0.0 0.0 0.00 0.00 0.00 75 1014.1
20260507022034 1 135 0.0 1.6 0.00 0.00 0.00 75 1014.0
20260507020935 1 0 0.0 0.0 0.00 0.00 0.00 74 1014.1
20260507015834 2 0 0.0 0.0 0.00 0.00 0.00 74 1014.1
20260507014734 2 135 1.6 4.8 0.00 0.00 0.00 73 1014.1
20260507013634 2 135 1.6 3.2 0.00 0.00 0.00 72 1014.0
20260507012534 2 0 0.0 0.0 0.00 0.00 0.00 71 1013.9
20260507011435 2 0 0.0 0.0 0.00 0.00 0.00 71 1014.0
20260507010334 3 0 0.0 0.0 0.00 0.00 0.00 70 1014.0
20260507005234 3 0 0.0 0.0 0.00 0.00 0.00 69 1013.8
20260507004134 3 0 0.0 0.0 0.00 0.00 0.00 68 1013.7
20260507003034 3 0 0.0 0.0 0.00 0.00 0.00 67 1013.8
20260507001934 3 181 0.0 1.6 0.00 0.00 0.00 66 1013.6
20260507000835 4 181 0.0 3.2 0.00 0.00 0.00 65 1013.7
20260506235734 4 181 1.6 3.2 0.00 0.00 0.00 64 1013.8
20260506234635 4 181 0.0 1.6 0.00 0.00 0.00 63 1013.7
20260506233533 5 181 0.0 3.2 0.00 0.00 0.00 62 1013.7
20260506232434 5 181 1.6 3.2 0.00 0.00 0.00 61 1013.8
20260506230234 6 124 1.6 3.2 0.00 0.00 0.00 60 1013.9
20260506225133 6 131 3.2 4.8 0.00 0.00 0.00 60 1013.8
20260506224033 6 119 1.6 6.4 0.00 0.00 0.00 60 1013.6
20260506222933 6 165 1.6 4.8 0.00 0.00 0.00 59 1013.8
20260506221834 6 164 3.2 4.8 0.00 0.00 0.00 58 1013.6